Location: ????????
(37.7512°N, 24.0696°E)
Time: 07:11:57
(UTC+00:00)

Daily predictions for brighter satellites

Satellite Brightness Start Highest point End
(mag) Time Altitude Azimuth Time Altitude Azimuth Time Altitude Azimuth
NOAA 12 4.1 15:49:36 10° SSE 15:54:52 77° ENE 16:00:11 10° N
Cosmos 1892 4.5 15:56:16 10° NE 15:58:09 13° ENE 16:00:01 10° ESE
Cosmos 1697 Rocket 3.9 15:57:09 10° SSE 16:01:14 21° E 16:05:21 10° NE
OAO 3 Rocket 3.8 15:58:15 10° W 16:02:58 54° S 16:07:35 10° ESE
Cosmos 1331 Rocket 4.4 15:58:18 10° SSW 16:03:26 68° WNW 16:08:34 10° NNE
Cosmos 1300 2.6 16:01:13 10° S 16:05:00 73° E 16:08:49 10° NNE
Cosmos 2058 Rocket 3.5 16:01:42 10° SSE 16:05:56 43° E 16:10:11 10° NNE
Cosmos 1953 Rocket 3.7 16:02:46 10° N 16:07:05 51° E 16:11:24 10° SSE
CZ-2D R/B 4.3 16:07:35 10° SE 16:10:42 24° ENE 16:13:49 10° NNE
NOAA 11 4.2 16:06:01 10° SSE 16:11:24 67° ENE 16:16:48 10° N
Cosmos 44 4.0 16:08:41 10° SW 16:12:59 51° NW 16:17:34 10° NNE
Cosmos 1346 Rocket 4.4 16:14:03 10° NNE 16:16:32 16° ENE 16:18:27 12° ESE
Cosmos 1315 Rocket 4.2 16:14:31 10° SE 16:17:12 18° E 16:19:54 10° NE
Aureole 3 Rocket 2.9 16:18:33 10° S 16:22:07 62° E 16:26:55 10° NNE
Cosmos 1980 Rocket 3.6 16:20:32 10° SE 16:23:58 17° E 16:25:26 15° E
Cosmos 968 Rocket 4.3 16:21:35 10° N 16:26:06 29° ENE 16:30:33 10° ESE
ERS-2 3.9 16:24:02 10° N 16:27:22 34° WNW 16:30:42 10° SW
SAR-Lupe-4 3.8 16:24:02 10° N 16:27:36 71° WNW 16:31:09 10° SSW
S3M 4.4 16:22:21 10° SSE 16:27:54 38° E 16:33:30 10° NNE
Cosmos 2297 Rocket 2.5 16:23:16 10° N 16:28:41 44° ENE 16:34:03 10° SE
FengYun 1-2 T 4.5 16:23:42 10° S 16:29:21 77° WSW 16:35:01 10° NNW
In-Cosmos 22 Rocket 4.2 16:26:22 10° N 16:31:36 51° ENE 16:36:56 10° SSE
Cosmos 1340 2.8 16:28:41 10° N 16:32:21 49° ENE 16:36:01 10° SSE
MOS 1 Rocket 4.2 16:28:18 10° NE 16:32:23 28° E 16:36:39 10° SSE
COSMO-SKYMED 1 2.5 16:29:18 10° NNE 16:33:40 89° SE 16:38:00 10° SSW
Cosmos 1302 Rocket 4.3 16:29:07 10° SSW 16:34:20 72° WNW 16:39:38 10° NNE
Cosmos 1417 Rocket 4.5 16:32:46 10° S 16:38:53 62° E 16:45:06 10° NNE
ASTRO E2 4.0 16:36:14 10° SW 16:39:38 28° S 16:41:37 18° SE
Aureole 3 3.3 16:38:16 10° SSW 16:41:33 58° W 16:44:32 10° N
Okean O Rocket 3.9 16:38:19 10° SSW 16:42:04 28° W 16:45:49 10° NW
GPS 2-04 Rocket1 4.0 16:39:03 10° SW 16:42:31 27° SSE 16:44:05 21° ESE
YAOGAN 1 2.9 16:39:48 10° SE 16:43:49 40° ENE 16:47:53 10° N
Timation 2 Rocket 4.2 16:37:11 10° NNW 16:43:53 87° WSW 16:50:45 10° SSE
USA 281 4.3 16:37:58 10° S 16:44:13 48° WSW 16:50:33 10° NW
Meteor 2-8 Rocket 4.5 16:38:12 10° S 16:44:17 86° W 16:50:27 10° N
Cosmos 1486 Rocket 4.2 16:41:16 10° N 16:46:25 47° ENE 16:51:30 10° SE
CZ-2C R/B 3.4 16:44:18 10° SSE 16:49:55 52° ENE 16:55:25 10° N
Cosmos 1812 Rocket 4.1 16:46:29 10° SSE 16:50:30 35° E 16:53:14 18° NE
Cosmos 2278 4.3 16:48:02 10° SSE 16:53:02 32° ESE 16:54:45 27° ENE
Cosmos 1455 2.3 16:49:55 10° SSE 16:53:32 49° E 16:56:10 18° NNE
Cosmos 44 Rocket 3.7 16:51:01 10° S 16:55:24 40° ESE 16:56:39 33° ENE
Cosmos 1553 Rocket 4.1 16:50:58 10° S 16:57:20 83° W 17:03:40 10° N
Cosmos 2219 3.2 16:53:13 10° NNW 16:59:00 85° ENE 17:04:45 10° SSE
Meteor 2-10 Rocket 3.4 16:55:06 10° S 17:00:29 79° E 17:05:40 10° NNE
DMSP B5D1-3 4.5 16:56:46 10° NNE 17:01:52 61° E 17:06:57 10° S
Cosmos 1939 Rocket 3.8 16:58:00 10° S 17:01:53 49° W 17:05:43 10° NNW
Meteor 2-15 Rocket 4.3 16:59:43 10° S 17:05:49 72° E 17:11:57 10° NNE
Cosmos 2082 4.1 17:02:16 10° N 17:07:42 42° ENE 17:08:49 38° E
Helios 1A Rocket 3.3 17:04:53 10° S 17:08:58 66° WSW 17:13:04 10° NNW
Cosmos 1992 Rocket 4.0 17:08:14 10° SSW 17:13:26 81° WNW 17:18:40 10° NNE
ARGOS 3.5 17:13:10 42° ENE 17:13:27 42° ENE 17:18:31 10° N
Okean-O 2.9 17:10:59 10° S 17:15:23 67° WSW 17:19:49 10° NNW
Cosmos 2369 3.6 17:10:46 10° SSW 17:16:29 84° ESE 17:21:09 16° NNE
OAO 2 Rocket 3.3 17:15:59 10° WSW 17:20:53 62° S 17:21:36 55° SE
H-2A R/B 2.0 17:18:13 13° SSE 17:23:00 71° ENE 17:28:26 10° N
GEOS 3 Rocket 4.0 17:24:33 46° NE 17:24:36 46° NE 17:29:43 10° NNW
CZ-4 R/B 2.2 17:22:03 10° S 17:25:51 49° W 17:29:36 10° NNW
Cosmos 1745 Rocket 4.1 17:21:58 10° N 17:28:17 81° W 17:34:37 10° S
Geosat 4.5 17:26:30 13° NNE 17:30:57 59° WNW 17:35:52 10° SW
CSL-04 Rocket 3.6 17:26:01 11° SSE 17:31:18 84° ENE 17:36:51 10° NNW
Cosmos 2058 3.4 17:28:42 10° NNW 17:32:44 59° W 17:35:16 21° SSW
Cosmos 2227 Rocket 2.5 17:27:16 10° NNW 17:32:53 65° WSW 17:37:54 13° S
Cosmos 1892 4.3 17:30:24 10° NNW 17:33:58 36° W 17:37:31 10° SSW
Atlas Centaur 2 3.5 17:26:55 10° WSW 17:35:03 51° S 17:37:33 40° SE
Cosmos 1408 3.9 17:34:40 10° NNW 17:37:15 37° NW 17:37:15 37° NW
Cosmos 2263 Rocket 4.2 17:34:24 10° N 17:35:33 14° NNE 17:35:33 14° NNE
SeaSat 1 3.7 17:46:28 31° N 17:46:28 31° N 17:49:07 10° NNW
Cosmos 1697 Rocket 3.5 17:39:24 10° SW 17:44:47 48° WNW 17:49:37 13° N
USA 215 4.4 17:51:39 26° NNE 17:51:39 26° NNE 17:56:39 10° NNW
Cosmos 1709 Rocket 4.0 17:51:42 10° N 17:58:05 84° W 17:59:42 54° S
ATLAS 2AS CENTAUR R/B 3.9 18:00:35 10° NNW 18:05:17 30° NNE 18:05:17 30° NNE
Cosmos 1980 Rocket 2.6 18:01:50 10° SW 18:07:19 60° WNW 18:07:19 60° WNW
Cosmos 2297 Rocket 4.3 18:08:01 10° NW 18:12:23 23° W 18:16:42 10° SSW
Cosmos 2315 Rocket 4.4 18:06:23 10° SSW 18:12:28 59° W 18:18:36 10° N
Milstar 3 3.9 18:27:13 10° WSW 18:31:53 33° SSW 18:31:53 33° SSW
